CW9849 Weather Reports


Display with metric or nautical units.
time (UTC)temp
F
wind
direction
speed
MPH
gust
MPH
rain 1hr
in
rain 24hr
in
rain mn
in
humidity
%
barometer
mb
20260901110023 74 209 9.0 16.0 0.00 0.00 0.00 67 1022.9
20260901104533 72 224 9.0 13.0 0.00 0.00 0.00 69 1022.8
20260901103028 74 212 10.0 14.0 0.00 0.00 0.00 66 1022.8
20260901101519 73 218 9.0 13.0 0.00 0.00 0.00 67 1022.7
20260901100017 73 230 8.0 11.0 0.00 0.00 0.00 68 1022.8
20260901094520 72 186 7.0 10.0 0.00 0.00 0.00 70 1022.7
20260901093010 71 211 5.0 9.0 0.00 0.00 0.00 73 1022.8
20260901091512 70 220 7.0 9.0 0.00 0.00 0.00 74 1022.9
20260901090005 67 226 6.0 11.0 0.00 0.00 0.00 78 1023.0
20260901084600 64 233 6.0 8.0 0.00 0.00 0.00 83 1022.9
20260901083056 63 233 7.0 10.0 0.00 0.00 0.00 82 1023.0
20260901081555 62 257 5.0 12.0 0.00 0.00 0.00 82 1022.9
20260901080108 63 224 8.0 13.0 0.00 0.00 0.00 81 1022.7
20260901074550 63 206 4.0 8.0 0.00 0.00 0.00 87 1022.7
20260901073046 61 214 4.0 6.0 0.00 0.00 0.00 90 1022.9
20260901071543 60 229 4.0 6.0 0.00 0.00 0.00 92 1022.7
20260901070057 59 233 3.0 5.0 0.00 0.00 0.00 91 1022.7
20260901064542 58 222 3.0 5.0 0.00 0.00 0.00 91 1022.7
20260901063037 58 233 4.0 6.0 0.00 0.00 0.00 91 1022.7
20260901061535 57 234 3.0 5.0 0.00 0.00 0.00 91 1022.4
20260901060040 57 227 3.0 5.0 0.00 0.00 0.00 90 1022.3
20260901054531 57 215 4.0 6.0 0.00 0.00 0.00 89 1022.2
20260901053031 58 220 4.0 6.0 0.00 0.00 0.00 90 1022.1
20260901051529 58 231 3.0 6.0 0.00 0.00 0.00 90 1022.3
20260901050028 58 243 4.0 5.0 0.00 0.00 0.00 90 1022.1
20260901044527 58 231 3.0 5.0 0.00 0.00 0.00 90 1022.1
20260901043026 58 233 3.0 5.0 0.00 0.00 0.00 89 1022.1
20260901041524 58 231 5.0 7.0 0.00 0.00 0.00 87 1022.0
20260901040023 58 236 5.0 8.0 0.00 0.00 0.00 87 1022.0
20260901034624 58 227 6.0 8.0 0.00 0.00 0.00 87 1022.2
20260901033031 58 233 5.0 7.0 0.00 0.00 0.00 86 1022.2
20260901031523 58 236 5.0 7.0 0.00 0.00 0.00 87 1022.2
20260901030018 58 243 5.0 8.0 0.00 0.00 0.00 86 1022.3
20260901024517 58 229 5.0 7.0 0.00 0.00 0.00 87 1022.3
20260901023015 59 250 4.0 6.0 0.00 0.00 0.00 86 1022.2
20260901021523 59 231 4.0 7.0 0.00 0.00 0.00 85 1022.4
20260901020015 59 238 2.0 5.0 0.00 0.00 0.00 84 1022.4
20260901014511 59 274 3.0 6.0 0.00 0.01 0.00 83 1022.5
20260901013011 59 283 4.0 6.0 0.00 0.01 0.00 83 1022.4
20260901011512 58 276 4.0 6.0 0.00 0.01 0.00 83 1022.5
20260901010027 59 269 4.0 6.0 0.00 0.01 0.00 82 1022.7
20260901004508 59 283 4.0 6.0 0.00 0.02 0.00 82 1022.7
20260901003005 59 281 5.0 7.0 0.00 0.02 0.00 82 1022.7
20260901001505 59 286 4.0 8.0 0.00 0.02 0.00 80 1022.7
20260901000004 59 310 6.0 9.0 0.00 0.02 0.00 80 1022.7
20260831234502 59 309 6.0 8.0 0.00 0.02 0.00 82 1022.7
20260831233059 60 298 5.0 8.0 0.00 0.02 0.00 82 1022.6
20260831231612 60 295 4.0 7.0 0.00 0.02 0.00 82 1022.6
20260831230054 60 285 4.0 7.0 0.00 0.02 0.00 82 1022.7
20260831224553 60 274 4.0 7.0 0.00 0.02 0.02 82 1022.7
20260831223100 60 290 4.0 7.0 0.00 0.02 0.02 81 1022.5
20260831221551 60 271 4.0 7.0 0.00 0.02 0.02 80 1022.5
20260831220053 61 276 4.0 6.0 0.00 0.02 0.02 80 1022.6
20260831214549 61 262 7.0 11.0 0.00 0.02 0.02 78 1022.6
20260831213051 61 281 7.0 10.0 0.00 0.02 0.02 79 1022.5
20260831211557 61 288 8.0 11.0 0.00 0.02 0.02 79 1022.6
20260831210048 61 269 5.0 8.0 0.00 0.02 0.02 79 1022.6
20260831204546 61 236 7.0 11.0 0.00 0.02 0.02 79 1022.6
20260831203046 61 272 5.0 9.0 0.00 0.02 0.02 80 1022.5
20260831201555 61 269 5.0 9.0 0.00 0.02 0.02 80 1022.5
20260831200045 61 269 5.0 10.0 0.00 0.02 0.02 80 1022.5
20260831194627 61 276 5.0 10.0 0.00 0.02 0.02 79 1022.2
20260831193041 61 271 8.0 11.0 0.00 0.02 0.02 78 1022.2
20260831191540 62 278 7.0 12.0 0.00 0.02 0.02 77 1022.2
20260831190042 62 269 9.0 14.0 0.00 0.02 0.02 76 1022.1
20260831184541 63 288 8.0 12.0 0.00 0.02 0.02 76 1022.0
20260831183036 63 257 6.0 12.0 0.00 0.02 0.02 76 1021.8
20260831181540 63 271 8.0 13.0 0.00 0.02 0.02 76 1021.8
20260831180035 63 264 8.0 13.0 0.00 0.02 0.02 73 1021.6
20260831174538 64 271 8.0 12.0 0.00 0.02 0.02 73 1021.5
20260831173030 65 283 10.0 14.0 0.00 0.02 0.02 71 1021.5
20260831171535 66 300 9.0 15.0 0.00 0.02 0.02 69 1021.5
20260831170031 64 293 9.0 13.0 0.00 0.02 0.02 74 1021.4
20260831164529 63 285 9.0 15.0 0.00 0.03 0.02 73 1021.5
20260831163030 64 278 8.0 14.0 0.00 0.03 0.02 72 1021.4
20260831161526 65 283 10.0 15.0 0.00 0.03 0.02 68 1021.3
20260831160026 65 265 10.0 15.0 0.00 0.03 0.02 66 1021.2
20260831154531 67 313 8.0 14.0 0.00 0.03 0.02 63 1021.1
20260831153034 66 302 11.0 16.0 0.00 0.03 0.02 62 1021.0
20260831151522 67 283 10.0 18.0 0.00 0.03 0.02 61 1021.1
20260831150022 66 277 9.0 16.0 0.00 0.03 0.02 64 1021.0
20260831144520 67 305 11.0 18.0 0.00 0.03 0.02 64 1020.9
20260831143020 66 298 11.0 18.0 0.00 0.03 0.02 62 1021.0
20260831141518 67 297 11.0 19.0 0.00 0.03 0.02 61 1021.0
20260831140019 67 293 10.0 18.0 0.00 0.03 0.02 62 1020.9
20260831134516 68 295 13.0 21.0 0.00 0.03 0.02 63 1020.8
20260831133013 68 262 12.0 19.0 0.00 0.03 0.02 59 1020.7
20260831131516 67 281 12.0 18.0 0.00 0.03 0.02 64 1020.5
20260831130011 67 293 10.0 18.0 0.00 0.03 0.02 63 1020.4
20260831124514 68 297 14.0 19.0 0.00 0.03 0.02 62 1020.3
20260831123008 68 291 13.0 20.0 0.00 0.03 0.02 61 1020.4
20260831121506 68 6 11.0 19.0 0.00 0.03 0.02 63 1020.1
20260831120006 68 283 10.0 20.0 0.00 0.03 0.02 66 1020.0
20260831114505 66 308 10.0 20.0 0.00 0.03 0.02 67 1020.0
20260831113108 67 327 11.0 18.0 0.00 0.03 0.02 68 1019.7
20260831111600 67 293 10.0 20.0 0.00 0.03 0.02 67 1019.4